Simultaneous Nadir Overpasses (SNOs) Predictions

Prediction of SNOs between LANDSAT-8 and NOAA-19 Satellite Orbit:

Table of predicted SNOs for the next 14.0 days since TLE Epoch: 3/28/2020
Index Date (LANDSAT-8) Time (LANDSAT-8) Lat,Lon (LANDSAT-8) SZA (LANDSAT-8 ) Date (NOAA-19) Time (NOAA-19) Lat,Lon (NOAA-19) SZA (NOAA-19 ) Distance(km) Time Diff (sec)
1 03/29/2020 09:10:52 -79.60,-113.46 103.23 03/29/2020 09:10:18 -79.61,-113.58 103.25 2.55 34
2 03/29/2020 10:00:18 79.60, 54.17 76.75 03/29/2020 10:01:14 79.56, 54.12 76.74 3.79 56
3 03/31/2020 14:44:34 79.60, -16.87 75.92 03/31/2020 14:43:35 79.61, -16.81 75.92 1.40 59
4 03/31/2020 15:34:02 -79.57, 150.54 104.14 03/31/2020 15:34:37 -79.59, 150.63 104.11 2.67 35
5 04/02/2020 21:07:42 79.60,-112.64 75.07 04/02/2020 21:07:54 79.60,-112.77 75.06 2.53 12
6 04/05/2020 02:41:25 -79.61, -16.00 105.76 04/05/2020 02:41:15 -79.60, -15.99 105.77 1.62 10
7 04/07/2020 08:15:07 79.60, 80.49 73.41 04/07/2020 08:14:34 79.62, 80.61 73.42 2.83 33
8 04/07/2020 09:04:34 -79.62,-111.79 106.59 04/07/2020 09:05:34 -79.59,-111.82 106.60 3.47 60
9 04/09/2020 13:48:50 -79.61, 177.13 107.40 04/09/2020 13:47:55 -79.64, 177.07 107.39 3.60 55




NCC Satellite Simultaneous Nadir Overpasses (SNOs) Prediction Service
